Zurück zum Katalog

STARLINK-5227

AktivKommunikationVLEO
NORAD 54181·PAYLOAD·🇺🇸 United States

Gestartet Oct 28, 2022 von Vandenberg Space Force Base

Loading…

Nächste Überflüge (nächste 24 Stunden)

TLE

AktuellSource: CelesTrak SupGP

Epoche: Sep 15, 2026, 02:11 UTC

1 54181C 22141AA  26258.09145833 -.00049508  00000+0 -14629-2 0  2584
2 54181  53.1580 219.0658 0001354  89.9360 239.1909 15.34410951    19

Verfolge STARLINK-5227 in Echtzeit mit AllMySat

Download on the App Store